Location: West Sayville
(40.7279°N, 73.0976°W)
Time: 09:17:13
(UTC+00:00)

Cosmos 1315 Rocket - Pass Details

Date: 29 October 2020
Orbit: 530 x 567 km, 81.2° (Epoch: 23 November)

Event Time Altitude Azimuth Distance (km) Brightness Sun altitude
Rises 22:26:02 0° 154° (SSE) 2,673 6.2 -7.1°
Reaches altitude 10° 22:28:36 10° 137° (SE) 1,793 5.1 -7.6°
Maximum altitude 22:31:30 20° 90° (E) 1,290 4.1 -8.1°
Drops below altitude 10° 22:34:26 10° 42° (NE) 1,820 5.0 -8.7°
Sets 22:37:03 0° 26° (NNE) 2,727 6.0 -9.2°
